DateTimeUTC,F1_A11,F1_S11,BsB_S11,BsG_S11,BsR_S11,BbsB_S11,BbsG_S11,BbsR_S11,BaB_A11,BaG_A11,BaR_A11,Tu_S11,T_S11,Uu_S11,U_S11,P_S11,T1_A11
2021-09-08T21:00:00Z,00000200,21000000,,,,,,,0000.25,0000.23,0000.01,17.7,25.1,,00.0,0662.1,31.0
2021-09-08T21:01:00Z,00000200,21000000,,,,,,,-000.20,-000.00,-000.01,17.7,25.1,,00.0,0662.1,31.0
2021-09-08T21:02:00Z,00000200,21000000,,,,,,,0000.17,0000.04,-000.01,17.7,25.1,,00.0,0662.1,31.0
2021-09-08T21:03:00Z,00000200,61000000,,,,,,,-000.18,-000.41,-000.12,17.7,25.1,,00.0,0662.1,31.0
2021-09-08T21:04:00Z,00000200,41000000,-000.76,0000.13,-000.02,-000.17,-000.14,0000.26,-000.15,-000.06,-000.15,18.0,24.9,,00.0,0663.0,31.0
2021-09-08T21:05:00Z,00000200,01000000,-000.85,-000.18,0000.19,-000.04,0000.19,0000.21,-000.80,-000.54,-000.61,18.0,24.9,,00.0,0663.1,31.0
2021-09-08T21:06:00Z,00000200,01000000,-000.33,-000.05,0000.17,0000.14,-000.29,-000.11,0000.14,0000.28,0000.43,17.9,24.8,,00.0,0663.1,30.9
2021-09-08T21:07:00Z,00000200,01000000,0000.68,-000.30,0000.03,-000.27,0000.12,0000.14,-000.03,0000.13,-000.11,17.9,24.8,,00.0,0663.1,30.9
2021-09-08T21:08:00Z,00000200,01000000,-000.23,0000.16,-000.03,-000.28,0000.05,0000.12,-000.05,0000.04,0000.23,17.8,24.7,,00.0,0663.1,30.9
2021-09-08T21:09:00Z,00000200,01000000,-000.50,0000.35,-000.17,-000.03,-000.09,-000.04,0000.35,-000.24,-000.37,17.7,24.6,,00.0,0663.1,30.9
2021-09-08T21:10:00Z,00000200,01000000,-000.04,-000.13,0000.04,-000.24,-000.30,0000.42,0000.04,0000.15,0000.17,17.7,24.6,,00.0,0663.1,30.9
2021-09-08T21:11:00Z,00000200,01000000,0000.44,0000.05,-000.10,-000.01,-000.19,0000.08,0000.04,0000.36,0000.40,17.7,24.6,,00.0,0663.1,30.9
2021-09-08T21:12:00Z,00000200,01000000,-000.22,-000.13,-000.08,0000.02,0000.04,-000.17,0000.26,-000.17,0000.08,17.7,24.6,,00.0,0663.1,30.9
2021-09-08T21:13:00Z,00000200,01000000,-000.50,-000.05,0000.00,0000.04,-000.18,0000.07,-000.35,0000.07,-000.27,17.8,24.6,,00.0,0663.1,30.9
2021-09-08T21:14:00Z,00000200,01000000,-000.44,0000.01,0000.10,0000.27,0000.44,0000.27,0000.21,-000.02,0000.06,17.9,24.6,,00.0,0663.1,30.9
2021-09-08T21:15:00Z,00000200,01000000,-000.29,-000.04,-000.08,-000.02,-000.02,-000.24,-000.21,-000.40,-000.06,17.9,24.7,,00.0,0663.1,30.9
2021-09-08T21:16:00Z,00000200,01000000,-000.90,0000.37,0000.01,-000.58,0000.10,-000.03,-000.09,0000.37,-000.09,18.0,24.7,,00.0,0663.1,31.0
2021-09-08T21:17:00Z,00000200,01000000,0000.02,-000.09,0000.06,-000.48,0000.07,0000.39,0000.23,0000.40,0000.29,18.1,24.8,,00.0,0663.1,31.0
2021-09-08T21:18:00Z,00000200,01000000,-000.32,0000.04,-000.26,-000.79,-000.00,-000.03,0000.29,-000.06,-000.04,18.1,24.8,,00.0,0663.1,31.0
2021-09-08T21:19:00Z,00000200,01000000,-000.14,-000.09,0000.07,0000.02,-000.01,0000.23,-000.34,-000.18,-000.20,18.2,24.8,,00.0,0663.1,31.0
2021-09-08T21:20:00Z,00000200,01000000,-000.18,0000.12,0000.16,-000.46,-000.17,0000.18,-000.27,-000.29,-000.33,18.3,24.8,,00.0,0663.2,31.0
2021-09-08T21:21:00Z,00000200,01000000,0000.12,0000.26,-000.18,-000.10,0000.06,0000.02,-000.25,-000.48,0000.19,18.3,24.8,,00.0,0663.1,31.0
2021-09-08T21:22:00Z,00000200,01000000,0001.13,0000.00,-000.30,-000.53,0000.20,0000.23,-000.14,0000.16,-000.39,18.2,24.8,,00.0,0663.1,31.0
2021-09-08T21:23:00Z,00000200,01000000,-000.02,-000.17,-000.30,0000.11,-000.05,-000.01,-000.08,-000.36,-000.13,18.2,24.8,,00.0,0663.1,31.0
2021-09-08T21:24:00Z,00000200,01000000,0000.21,0000.25,-000.03,0000.10,-000.16,0000.26,-000.43,-000.18,-000.21,18.1,24.8,,00.0,0663.1,31.0
2021-09-08T21:25:00Z,00000200,01000000,-000.16,0000.13,0000.01,-000.73,0000.28,0000.00,-000.10,-000.15,0000.17,18.0,24.7,,00.0,0663.1,30.9
2021-09-08T21:26:00Z,00000200,01000000,-000.17,0000.58,0000.06,0000.25,-000.09,-000.11,-000.09,0000.21,-000.02,18.0,24.7,,00.0,0663.1,30.9
2021-09-08T21:27:00Z,00000200,01000000,-000.08,-000.01,0000.02,0000.29,-000.21,0000.15,0000.58,-000.11,-000.00,18.0,24.7,,00.0,0663.1,31.0
2021-09-08T21:28:00Z,00000200,01000000,-000.22,-000.01,-000.12,-000.57,-000.22,0000.19,-000.16,0000.10,0000.31,18.1,24.7,,00.0,0663.1,31.0
2021-09-08T21:29:00Z,00000200,01000000,0000.31,-000.42,-000.20,-000.55,-000.27,0000.07,0000.20,0000.48,-000.18,18.2,24.7,,00.0,0663.1,31.0
2021-09-08T21:30:00Z,00000200,01000000,-000.59,0000.43,-000.13,0000.05,-000.07,0000.00,-000.17,-000.21,0000.03,18.2,24.8,,00.0,0663.1,31.0
2021-09-08T21:31:00Z,00000200,01000000,-000.03,0000.24,-000.06,0000.68,-000.16,-000.13,0000.06,-000.08,0000.07,18.3,24.8,,00.0,0663.1,31.0
2021-09-08T21:32:00Z,00000200,01000000,-000.14,-000.27,-000.07,-000.66,-000.33,0000.18,-000.04,-000.10,0000.24,18.4,24.9,,00.0,0663.1,31.0
2021-09-08T21:33:00Z,00000200,01000000,0000.62,-000.02,-000.28,0000.30,0000.01,-000.05,0000.11,0000.10,-000.35,18.4,24.9,,00.0,0663.1,31.0
2021-09-08T21:34:00Z,00000200,01000000,-000.83,0000.06,-000.10,0000.04,-000.35,0000.32,-000.28,-000.06,-000.04,18.5,24.9,,00.0,0663.1,31.0
2021-09-08T21:35:00Z,00000200,01000000,0000.44,-000.20,0000.26,-000.52,-000.22,0000.15,-000.11,-000.39,-000.12,18.5,24.9,,00.0,0663.1,31.0
2021-09-08T21:36:00Z,00000200,01000000,0000.31,0000.11,0000.16,0000.32,-000.00,0000.20,-000.39,-000.21,-000.07,18.4,24.9,,00.0,0663.1,31.0
2021-09-08T21:37:00Z,00000200,01000000,-000.34,0000.21,0000.15,0000.20,-000.09,0000.26,-000.18,-000.16,-000.29,18.3,24.9,,00.0,0663.1,31.0
2021-09-08T21:38:00Z,00000200,01000000,-000.03,-000.08,-000.38,0000.44,-000.19,-000.11,0000.18,0000.29,-000.17,18.2,24.8,,00.0,0663.1,31.0
2021-09-08T21:39:00Z,00000200,01000000,-000.09,0000.04,-000.13,-000.68,-000.07,0000.22,-000.21,-000.36,0000.11,18.2,24.8,,00.0,0663.0,30.9
2021-09-08T21:40:00Z,00000200,01000000,0000.27,0000.17,0000.20,-000.65,-000.37,-000.14,-000.18,0000.01,-000.05,18.1,24.7,,00.0,0663.0,30.9
2021-09-08T21:41:00Z,00000200,01000000,0000.03,0000.12,-000.12,-000.39,0000.06,0000.04,0000.39,0000.31,0000.18,18.1,24.7,,00.0,0663.0,30.9
2021-09-08T21:42:00Z,00000200,01000000,-000.31,0000.03,-000.31,0000.10,0000.04,-000.29,-000.08,-000.21,0000.11,18.1,24.7,,00.0,0663.0,30.9
2021-09-08T21:43:00Z,00000200,01000000,0000.13,-000.24,-000.06,0000.09,-000.22,0000.05,0000.17,-000.02,0000.10,18.2,24.7,,00.0,0663.0,30.9
2021-09-08T21:44:00Z,00000200,01000000,0000.02,-000.10,0000.03,-000.05,0000.09,0000.23,0000.17,0000.25,-000.11,18.2,24.8,,00.0,0663.0,31.0
2021-09-08T21:45:00Z,00000200,01000000,-000.43,0000.13,-000.38,0000.04,0000.01,-000.26,-000.06,-000.05,-000.01,18.3,24.8,,00.0,0663.0,31.0
2021-09-08T21:46:00Z,00000200,01000000,-000.24,0000.06,-000.36,0000.27,-000.18,-000.16,-000.18,0000.18,-000.04,18.4,24.8,,00.0,0663.0,31.0
2021-09-08T21:47:00Z,00000200,01000000,0000.20,-000.06,-000.22,-000.13,-000.07,0000.13,-000.06,-000.35,-000.21,18.4,24.9,,00.0,0663.1,31.0
2021-09-08T21:48:00Z,00000200,01000000,-000.09,0000.01,-000.27,0000.00,-000.41,0000.15,-000.35,-000.11,-000.05,18.5,24.9,,00.0,0663.1,31.0
2021-09-08T21:49:00Z,00000200,01000000,-000.11,0000.24,-000.40,-000.31,-000.27,-000.11,-000.20,-000.37,-000.17,18.5,24.9,,00.0,0663.1,31.0
2021-09-08T21:50:00Z,00000200,01000000,-000.39,-000.21,-000.09,-000.45,-000.27,-000.16,-000.26,0000.16,-000.07,18.5,24.9,,00.0,0663.1,31.0
2021-09-08T21:51:00Z,00000200,01000000,-000.35,0000.22,0000.09,-000.48,0000.09,0000.09,0000.04,-000.45,-000.24,18.4,24.9,,00.0,0663.1,31.0
2021-09-08T21:52:00Z,00000200,01000000,-000.62,0000.43,0000.02,-000.46,0000.02,-000.04,-000.48,-000.04,-000.40,18.3,24.9,,00.0,0663.0,31.0
2021-09-08T21:53:00Z,00000200,01000000,0000.65,0000.19,0000.11,-000.31,-000.01,0000.22,0000.30,-000.18,0000.06,18.2,24.8,,00.0,0663.1,30.9
2021-09-08T21:54:00Z,00000200,01000000,0000.12,0000.62,0000.15,0000.75,-000.07,0000.27,-000.24,-000.16,0000.12,18.1,24.8,,00.0,0663.1,30.9
2021-09-08T21:55:00Z,00000200,01000000,0000.09,0000.32,-000.03,-000.41,-000.16,-000.18,0000.17,0000.09,-000.11,18.0,24.7,,00.0,0663.1,30.9
2021-09-08T21:56:00Z,00000200,01000000,0000.34,0000.40,0000.20,-000.05,0000.00,0000.29,0000.19,0000.13,0000.21,18.0,24.7,,00.0,0663.1,30.9
2021-09-08T21:57:00Z,00000200,41000000,,,,,,,0001.31,0001.34,0001.32,18.1,24.7,,00.0,0663.1,31.0
2021-09-08T21:58:00Z,00000200,61000000,,,,,,,-000.47,-000.52,-000.68,17.7,24.9,,00.0,0662.1,30.9
2021-09-08T21:59:00Z,00000200,21000000,,,,,,,-000.42,-000.19,-000.28,17.7,25.0,,00.0,0662.1,31.0
